Tracking 21082 objects as of 6-Aug-2020
HD Live streaming from Space Station
objects crossing your sky now

GB 1

Track GB 1 now!
10-day predictions
GB 1 is classified as:


NORAD ID: 14143
Int'l Code: 1983-056C
Perigee: 383.7 km
Apogee: 1,740.4 km
Inclination: 63.3 °
Period: 106.3 minutes
Semi major axis: 7433 km
RCS: Unknown
Launch date: June 9, 1983
Source: United States (US)
Launch site: AIR FORCE WESTERN TEST RANGE (AFWTR)
aabbcc
Your satellite tracking list
Your tracking list is empty




NASA's NSSDC Master Catalog

Two Line Element Set (TLE):
1 14143U 83056C   20218.47108018  .00000681  00000-0  64750-4 0  9998
2 14143  63.2961 284.1492 0912572  93.1506 277.4200 13.54727923 54286
Source of the keplerian elements: McCants